Content
SEND FEEDBACK

Daily
Averages
Monthly
Summary
United States of America

ST. LOUIS, MISSOURI


Home > North America > United States > Missouri
Elevation: 163 meters     Latitude: 38 45N     Longitude: 090 22W

WEATHER
 
SELECT A DAY
Number of Records: 196,500;   Date Range: 1/1/95 - 8/30/14
 
SHARE

PRINT THIS DATA

[ ← Previous Day ]
WEATHER ALMANAC - 28 APRIL, 2013
[ Next Day → ]
[ °F ]   °C
Weather ElementAverageHighLow
Temperature11.5 °C14.4 °C (6:54 pm)7 °C (11:38 pm)
Dewpoint9.2 °C10.6 °C (12:54 am)6 °C (11:38 pm)
Humidity86.1 %97 % (12:54 am)74 % (4:54 pm)
Barometer1013.9 hPa1015.2 hPa (11:54 am)1012.9 hPa (2:54 am)
Wind Speed8 km/h20.4 km/h (8:54 am)
Weather ElementAverage
Visibility11.7 km
Wind DirectionS (182.3 °)

Weather ElementTotal
Precipitation---
Heating Degree Days7.7 (Base 18.3)
Growing Degree Days0.7 (Base 10)
Averaged from 31 records on 28 April, 2013
WEATHER CONDITIONS BREAKOUT
WIND DIRECTION BREAKOUT
WEATHER BY HOUR - 28 APRIL, 2013
[ °F ]   °C
Local TimeTemperatureDewpointHumidityBarometerVisibilityWind DirectionWind SpeedGust SpeedPrecipitationEventsConditions
12:54 AM11.1 °C10.6 °C97 %1013.9 hPa14.5 kmWest (260°)5.6 km/hOvercast
1:54 AM11.1 °C10 °C93 %1013.2 hPa9.7 kmWNW (290°)9.3 km/hOvercast
2:54 AM11.1 °C10 °C93 %1012.9 hPa6.4 kmWNW (290°)11.1 km/hOvercast
3:54 AM11.1 °C10 °C93 %1012.9 hPa4.8 kmWNW (290°)13 km/hOvercast
4:54 AM11.1 °C10 °C93 %1012.9 hPa14.5 kmWNW (290°)9.3 km/hOvercast
5:54 AM11.1 °C10 °C93 %1013.2 hPa4.8 kmNW (310°)14.8 km/hOvercast
6:54 AM11.1 °C10 °C93 %1013.9 hPa9.7 kmWNW (290°)9.3 km/hOvercast
7:54 AM12 °C10 °C88 %1014.6 hPa9.7 kmWest (280°)13 km/hOvercast
8:54 AM11.7 °C10 °C89 %1014.6 hPa8 kmWNW (300°)20.4 km/hOvercast
9:26 AM12 °C10 °C88 %1014.6 hPa14.5 kmWNW (300°)16.7 km/hOvercast
9:54 AM12.2 °C10 °C86 %1014.6 hPa16.1 kmWNW (290°)13 km/hOvercast
10:54 AM12.2 °C9.4 °C83 %1014.9 hPa16.1 kmWNW (300°)20.4 km/hOvercast
11:54 AM12.8 °C9.4 °C80 %1015.2 hPa16.1 kmWNW (290°)14.8 km/hOvercast
12:12 PM13 °C9 °C77 %1014.9 hPa16.1 kmWNW (290°)9.3 km/hOvercast
12:54 PM12.8 °C9.4 °C80 %1014.9 hPa16.1 kmWest (270°)13 km/hOvercast
1:54 PM13.3 °C9.4 °C77 %1014.6 hPa16.1 kmWSW (240°)14.8 km/hOvercast
2:54 PM13.3 °C10 °C80 %1014.2 hPa16.1 kmWSW (240°)13 km/hOvercast
3:54 PM13.3 °C9.4 °C77 %1013.9 hPa16.1 kmWest (260°)11.1 km/hOvercast
4:54 PM13.9 °C9.4 °C74 %1013.9 hPa16.1 kmWest (260°)5.6 km/hOvercast
5:54 PM13.9 °C9.4 °C74 %1013.2 hPa16.1 kmCalmOvercast
6:54 PM14.4 °C10 °C75 %1013.2 hPa16.1 kmCalmOvercast
7:54 PM13.9 °C9.4 °C74 %1013.2 hPa16.1 kmCalmOvercast
8:54 PM11.7 °C9.4 °C86 %1013.5 hPa16.1 kmSSE (150°)5.6 km/hOvercast
9:12 PM12 °C9 °C82 %1013.2 hPa16.1 kmSSE (160°)5.6 km/hScattered Clouds
9:54 PM10 °C8.3 °C89 %1013.5 hPa16.1 kmCalmClear
10:54 PM9.4 °C8.3 °C93 %1013.5 hPa11.3 kmCalmClear
11:16 PM9 °C7 °C87 %1013.2 hPa2.9 kmCalmClear
11:25 PM9 °C8 °C93 %1013.2 hPa4.8 kmCalmClear
11:28 PM8 °C7 °C93 %1013.2 hPa2.4 kmCalmClear
11:38 PM7 °C6 °C93 %1013.2 hPa0.8 kmCalmFogFog
11:54 PM7.2 °C6.7 °C97 %1013.5 hPa1.6 kmCalmClear
Hourly data recorded from KSUS, located 0 kilometers away from St. Louis, Missouri







STORIES FROM OUR PARTNERS